Year,Month,Day,Hour,Minute,Value (Times are PST for temperature in C)
2008,08,14,00,00,17.10
2008,08,14,00,01,17.10
2008,08,14,00,02,17.10
2008,08,14,00,03,17.10
2008,08,14,00,04,17.10
2008,08,14,00,05,17.20
2008,08,14,00,06,17.20
2008,08,14,00,07,17.20
2008,08,14,00,08,17.20
2008,08,14,00,09,17.20
2008,08,14,00,10,17.20
2008,08,14,00,11,17.20
2008,08,14,00,12,17.20
2008,08,14,00,13,17.20
2008,08,14,00,14,17.20
2008,08,14,00,15,17.20
2008,08,14,00,16,17.20
2008,08,14,00,17,17.20
2008,08,14,00,18,17.20
2008,08,14,00,19,17.20
2008,08,14,00,20,17.30
2008,08,14,00,21,17.30
2008,08,14,00,22,17.30
2008,08,14,00,23,17.30
2008,08,14,00,24,17.30
2008,08,14,00,25,17.30
2008,08,14,00,26,17.30
2008,08,14,00,27,17.30
2008,08,14,00,28,17.30
2008,08,14,00,29,17.30
2008,08,14,00,30,17.30
2008,08,14,00,31,17.30
2008,08,14,00,32,17.30
2008,08,14,00,33,17.30
2008,08,14,00,34,17.30
2008,08,14,00,35,17.30
2008,08,14,00,36,17.30
2008,08,14,00,37,17.30
2008,08,14,00,38,17.40
2008,08,14,00,39,17.40
2008,08,14,00,40,17.40
2008,08,14,00,41,17.40
2008,08,14,00,42,17.40
2008,08,14,00,43,17.40
2008,08,14,00,44,17.40
2008,08,14,00,45,17.40
2008,08,14,00,46,17.40
2008,08,14,00,47,17.50
2008,08,14,00,48,17.40
2008,08,14,00,49,17.40
2008,08,14,00,50,17.40
2008,08,14,00,51,17.40
2008,08,14,00,52,17.40
2008,08,14,00,53,17.40
2008,08,14,00,54,17.40
2008,08,14,00,55,17.40
2008,08,14,00,56,17.40
2008,08,14,00,57,17.40
2008,08,14,00,58,17.40
2008,08,14,00,59,17.40
2008,08,14,01,00,17.40
2008,08,14,01,01,17.40
2008,08,14,01,02,17.40
2008,08,14,01,03,17.40
2008,08,14,01,04,17.40
2008,08,14,01,05,17.40
2008,08,14,01,06,17.40
2008,08,14,01,07,17.40
2008,08,14,01,08,17.40
2008,08,14,01,09,17.40
2008,08,14,01,10,17.40
2008,08,14,01,11,17.40
2008,08,14,01,12,17.40
2008,08,14,01,13,17.40
2008,08,14,01,14,17.40
2008,08,14,01,15,17.40
2008,08,14,01,16,17.30
2008,08,14,01,17,17.30
2008,08,14,01,18,17.40
2008,08,14,01,19,17.40
2008,08,14,01,20,17.40
2008,08,14,01,21,17.40
2008,08,14,01,22,17.50
2008,08,14,01,23,17.50
2008,08,14,01,24,17.50
2008,08,14,01,25,17.50
2008,08,14,01,26,17.60
2008,08,14,01,27,17.60
2008,08,14,01,28,17.60
2008,08,14,01,29,17.60
2008,08,14,01,30,17.60
2008,08,14,01,31,17.70
2008,08,14,01,32,17.70
2008,08,14,01,33,17.70
2008,08,14,01,34,17.70
2008,08,14,01,35,17.70
2008,08,14,01,36,17.60
2008,08,14,01,37,17.60
2008,08,14,01,38,17.60
2008,08,14,01,39,17.60
2008,08,14,01,40,17.60
2008,08,14,01,41,17.60
2008,08,14,01,42,17.60
2008,08,14,01,43,17.60
2008,08,14,01,44,17.60
2008,08,14,01,45,17.60
2008,08,14,01,46,17.50
2008,08,14,01,47,17.50
2008,08,14,01,48,17.50
2008,08,14,01,49,17.50
2008,08,14,01,50,17.40
2008,08,14,01,51,17.40
2008,08,14,01,52,17.40
2008,08,14,01,53,17.40
2008,08,14,01,54,17.40
2008,08,14,01,55,17.40
2008,08,14,01,56,17.40
2008,08,14,01,57,17.40
2008,08,14,01,58,17.40
2008,08,14,01,59,17.40
2008,08,14,02,00,17.30
2008,08,14,02,01,17.30
2008,08,14,02,02,17.30
2008,08,14,02,03,17.30
2008,08,14,02,04,17.30
2008,08,14,02,05,17.20
2008,08,14,02,06,17.20
2008,08,14,02,07,17.20
2008,08,14,02,08,17.20
2008,08,14,02,09,17.20
2008,08,14,02,10,17.20
2008,08,14,02,11,17.30
2008,08,14,02,12,17.30
2008,08,14,02,13,17.30
2008,08,14,02,14,17.30
2008,08,14,02,15,17.30
2008,08,14,02,16,17.40
2008,08,14,02,17,17.40
2008,08,14,02,18,17.40
2008,08,14,02,19,17.40
2008,08,14,02,20,17.40
2008,08,14,02,21,17.40
2008,08,14,02,22,17.40
2008,08,14,02,23,17.40
2008,08,14,02,24,17.40
2008,08,14,02,25,17.40
2008,08,14,02,26,17.40
2008,08,14,02,27,17.40
2008,08,14,02,28,17.40
2008,08,14,02,29,17.40
2008,08,14,02,30,17.40
2008,08,14,02,31,17.50
2008,08,14,02,32,17.50
2008,08,14,02,33,17.50
2008,08,14,02,34,17.50
2008,08,14,02,35,17.60
2008,08,14,02,36,17.60
2008,08,14,02,37,17.60
2008,08,14,02,38,17.60
2008,08,14,02,39,17.60
2008,08,14,02,40,17.60
2008,08,14,02,41,17.60
2008,08,14,02,42,17.60
2008,08,14,02,43,17.60
2008,08,14,02,44,17.60
2008,08,14,02,45,17.60
2008,08,14,02,46,17.60
2008,08,14,02,47,17.70
2008,08,14,02,48,17.70
2008,08,14,02,49,17.60
2008,08,14,02,50,17.60
2008,08,14,02,51,17.60
2008,08,14,02,52,17.60
2008,08,14,02,53,17.60
2008,08,14,02,54,17.50
2008,08,14,02,55,17.50
2008,08,14,02,56,17.50
2008,08,14,02,57,17.40
2008,08,14,02,58,17.40
2008,08,14,02,59,17.40
2008,08,14,03,00,17.40
2008,08,14,03,01,17.40
2008,08,14,03,02,17.40
2008,08,14,03,03,17.40
2008,08,14,03,04,17.40
2008,08,14,03,05,17.50
2008,08,14,03,06,17.60
2008,08,14,03,07,17.60
2008,08,14,03,08,17.60
2008,08,14,03,09,17.70
2008,08,14,03,10,17.70
2008,08,14,03,11,17.80
2008,08,14,03,12,17.80
2008,08,14,03,13,17.90
2008,08,14,03,14,17.90
2008,08,14,03,15,17.90
2008,08,14,03,16,17.90
2008,08,14,03,17,17.90
2008,08,14,03,18,17.90
2008,08,14,03,19,17.90
2008,08,14,03,20,17.90
2008,08,14,03,21,18.00
2008,08,14,03,22,18.00
2008,08,14,03,23,18.00
2008,08,14,03,24,18.10
2008,08,14,03,25,18.20
2008,08,14,03,26,18.20
2008,08,14,03,27,18.30
2008,08,14,03,28,18.40
2008,08,14,03,29,18.40
2008,08,14,03,30,18.50
2008,08,14,03,31,18.70
2008,08,14,03,32,18.80
2008,08,14,03,33,18.90
2008,08,14,03,34,19.00
2008,08,14,03,35,19.10
2008,08,14,03,36,19.10
2008,08,14,03,37,19.20
2008,08,14,03,38,19.20
2008,08,14,03,39,19.20
2008,08,14,03,40,19.20
2008,08,14,03,41,19.20
2008,08,14,03,42,19.20
2008,08,14,03,43,19.20
2008,08,14,03,44,19.10
2008,08,14,03,45,19.10
2008,08,14,03,46,19.00
2008,08,14,03,47,19.00
2008,08,14,03,48,18.90
2008,08,14,03,49,18.90
2008,08,14,03,50,18.80
2008,08,14,03,51,18.80
2008,08,14,03,52,18.70
2008,08,14,03,53,18.70
2008,08,14,03,54,18.60
2008,08,14,03,55,18.60
2008,08,14,03,56,18.60
2008,08,14,03,57,18.50
2008,08,14,03,58,18.50
2008,08,14,03,59,18.40
2008,08,14,04,00,18.40
2008,08,14,04,01,18.30
2008,08,14,04,02,18.30
2008,08,14,04,03,18.30
2008,08,14,04,04,18.30
2008,08,14,04,05,18.30
2008,08,14,04,06,18.30
2008,08,14,04,07,18.20
2008,08,14,04,08,18.20
2008,08,14,04,09,18.20
2008,08,14,04,10,18.20
2008,08,14,04,11,18.20
2008,08,14,04,12,18.30
2008,08,14,04,13,18.30
2008,08,14,04,14,18.40
2008,08,14,04,15,18.50
2008,08,14,04,16,18.50
2008,08,14,04,17,18.50
2008,08,14,04,18,18.60
2008,08,14,04,19,18.60
2008,08,14,04,20,18.60
2008,08,14,04,21,18.60
2008,08,14,04,22,18.60
2008,08,14,04,23,18.70
2008,08,14,04,24,18.70
2008,08,14,04,25,18.70
2008,08,14,04,26,18.60
2008,08,14,04,27,18.60
2008,08,14,04,28,18.60
2008,08,14,04,29,18.60
2008,08,14,04,30,18.60
2008,08,14,04,31,18.60
2008,08,14,04,32,18.60
2008,08,14,04,33,18.60
2008,08,14,04,34,18.60
2008,08,14,04,35,18.60
2008,08,14,04,36,18.60
2008,08,14,04,37,18.60
2008,08,14,04,38,18.60
2008,08,14,04,39,18.60
2008,08,14,04,40,18.60
2008,08,14,04,41,18.60
2008,08,14,04,42,18.60
2008,08,14,04,43,18.60
2008,08,14,04,44,18.60
2008,08,14,04,45,18.50
2008,08,14,04,46,18.50
2008,08,14,04,47,18.50
2008,08,14,04,48,18.50
2008,08,14,04,49,18.50
2008,08,14,04,50,18.50
2008,08,14,04,51,18.50
2008,08,14,04,52,18.50
2008,08,14,04,53,18.50
2008,08,14,04,54,18.50
2008,08,14,04,55,18.50
2008,08,14,04,56,18.50
2008,08,14,04,57,18.50
2008,08,14,04,58,18.40
2008,08,14,04,59,18.40
2008,08,14,05,00,18.40
2008,08,14,05,01,18.40
2008,08,14,05,02,18.40
2008,08,14,05,03,18.40
2008,08,14,05,04,18.30
2008,08,14,05,05,18.30
2008,08,14,05,06,18.30
2008,08,14,05,07,18.30
2008,08,14,05,08,18.20
2008,08,14,05,09,18.20
2008,08,14,05,10,18.20
2008,08,14,05,11,18.20
2008,08,14,05,12,18.10
2008,08,14,05,13,18.10
2008,08,14,05,14,18.10
2008,08,14,05,15,18.10
2008,08,14,05,16,18.10
2008,08,14,05,17,18.00
2008,08,14,05,18,18.00
2008,08,14,05,19,18.00
2008,08,14,05,20,18.00
2008,08,14,05,21,18.00
2008,08,14,05,22,18.00
2008,08,14,05,23,18.00
2008,08,14,05,24,18.00
2008,08,14,05,25,18.10
2008,08,14,05,26,18.10
2008,08,14,05,27,18.10
2008,08,14,05,28,18.10
2008,08,14,05,29,18.10
2008,08,14,05,30,18.10
2008,08,14,05,31,18.10
2008,08,14,05,32,18.10
2008,08,14,05,33,18.10
2008,08,14,05,34,18.10
2008,08,14,05,35,18.10
2008,08,14,05,36,18.10
2008,08,14,05,37,18.20
2008,08,14,05,38,18.20
2008,08,14,05,39,18.20
2008,08,14,05,40,18.20
2008,08,14,05,41,18.20
2008,08,14,05,42,18.20
2008,08,14,05,43,18.10
2008,08,14,05,44,18.10
2008,08,14,05,45,18.10
2008,08,14,05,46,18.10
2008,08,14,05,47,18.00
2008,08,14,05,48,18.00
2008,08,14,05,49,17.90
2008,08,14,05,50,17.90
2008,08,14,05,51,17.90
2008,08,14,05,52,17.90
2008,08,14,05,53,17.90
2008,08,14,05,54,17.90
2008,08,14,05,55,17.90
2008,08,14,05,56,17.90
2008,08,14,05,57,17.90
2008,08,14,05,58,17.90
2008,08,14,05,59,18.00
2008,08,14,06,00,18.00
2008,08,14,06,01,18.00
2008,08,14,06,02,18.10
2008,08,14,06,03,18.10
2008,08,14,06,04,18.10
2008,08,14,06,05,18.10
2008,08,14,06,06,18.10
2008,08,14,06,07,18.00
2008,08,14,06,08,18.00
2008,08,14,06,09,18.00
2008,08,14,06,10,18.00
2008,08,14,06,11,18.00
2008,08,14,06,12,18.00
2008,08,14,06,13,18.00
2008,08,14,06,14,18.00
2008,08,14,06,15,18.00
2008,08,14,06,16,18.00
2008,08,14,06,17,17.90
2008,08,14,06,18,18.00
2008,08,14,06,19,18.00
2008,08,14,06,20,18.00
2008,08,14,06,21,18.00
2008,08,14,06,22,18.00
2008,08,14,06,23,18.00
2008,08,14,06,24,18.10
2008,08,14,06,25,18.10
2008,08,14,06,26,18.10
2008,08,14,06,27,18.10
2008,08,14,06,28,18.10
2008,08,14,06,29,18.10
2008,08,14,06,30,18.10
2008,08,14,06,31,18.10
2008,08,14,06,32,18.10
2008,08,14,06,33,18.10
2008,08,14,06,34,18.10
2008,08,14,06,35,18.10
2008,08,14,06,36,18.10
2008,08,14,06,37,18.10
2008,08,14,06,38,18.10
2008,08,14,06,39,18.10
2008,08,14,06,40,18.10
2008,08,14,06,41,18.10
2008,08,14,06,42,18.10
2008,08,14,06,43,18.10
2008,08,14,06,44,18.10
2008,08,14,06,45,18.10
2008,08,14,06,46,18.20
2008,08,14,06,47,18.20
2008,08,14,06,48,18.20
2008,08,14,06,49,18.20
2008,08,14,06,50,18.20
2008,08,14,06,51,18.30
2008,08,14,06,52,18.30
2008,08,14,06,53,18.30
2008,08,14,06,54,18.40
2008,08,14,06,55,18.40
2008,08,14,06,56,18.50
2008,08,14,06,57,18.50
2008,08,14,06,58,18.60
2008,08,14,06,59,18.70
2008,08,14,07,00,18.70
2008,08,14,07,01,18.80
2008,08,14,07,02,18.80
2008,08,14,07,03,18.90
2008,08,14,07,04,19.00
2008,08,14,07,05,19.00
2008,08,14,07,06,19.10
2008,08,14,07,07,19.10
2008,08,14,07,08,19.20
2008,08,14,07,09,19.30
2008,08,14,07,10,19.30
2008,08,14,07,11,19.30
2008,08,14,07,12,19.40
2008,08,14,07,13,19.50
2008,08,14,07,14,19.50
2008,08,14,07,15,19.60
2008,08,14,07,16,19.60
2008,08,14,07,17,19.70
2008,08,14,07,18,19.70
2008,08,14,07,19,19.80
2008,08,14,07,20,19.80
2008,08,14,07,21,19.90
2008,08,14,07,22,19.90
2008,08,14,07,23,19.90
2008,08,14,07,24,20.00
2008,08,14,07,25,20.00
2008,08,14,07,26,20.10
2008,08,14,07,27,20.10
2008,08,14,07,28,20.10
2008,08,14,07,29,20.20
2008,08,14,07,30,20.20
2008,08,14,07,31,20.20
2008,08,14,07,32,20.20
2008,08,14,07,33,20.30
2008,08,14,07,34,20.30
2008,08,14,07,35,20.30
2008,08,14,07,36,20.30
2008,08,14,07,37,20.30
2008,08,14,07,38,20.40
2008,08,14,07,39,20.40
2008,08,14,07,40,20.40
2008,08,14,07,41,20.50
2008,08,14,07,42,20.50
2008,08,14,07,43,20.60
2008,08,14,07,44,20.60
2008,08,14,07,45,20.60
2008,08,14,07,46,20.70
2008,08,14,07,47,20.70
2008,08,14,07,48,20.80
2008,08,14,07,49,20.80
2008,08,14,07,50,20.80
2008,08,14,07,51,20.80
2008,08,14,07,52,20.80
2008,08,14,07,53,20.90
2008,08,14,07,54,20.90
2008,08,14,07,55,20.90
2008,08,14,07,56,20.90
2008,08,14,07,57,20.90
2008,08,14,07,58,21.00
2008,08,14,07,59,21.00
2008,08,14,08,00,21.00
2008,08,14,08,01,21.10
2008,08,14,08,02,21.10
2008,08,14,08,03,21.10
2008,08,14,08,04,21.10
2008,08,14,08,05,21.10
2008,08,14,08,06,21.10
2008,08,14,08,07,21.10
2008,08,14,08,08,21.20
2008,08,14,08,09,21.20
2008,08,14,08,10,21.20
2008,08,14,08,11,21.20
2008,08,14,08,12,21.20
2008,08,14,08,13,21.20
2008,08,14,08,14,21.20
2008,08,14,08,15,21.20
2008,08,14,08,16,21.20
2008,08,14,08,17,21.30
2008,08,14,08,18,21.30
2008,08,14,08,19,21.30
2008,08,14,08,20,21.30
2008,08,14,08,21,21.30
2008,08,14,08,22,21.30
2008,08,14,08,23,21.30
2008,08,14,08,24,21.30
2008,08,14,08,25,21.40
2008,08,14,08,26,21.40
2008,08,14,08,27,21.40
2008,08,14,08,28,21.50
2008,08,14,08,29,21.50
2008,08,14,08,30,21.60
2008,08,14,08,31,21.60
2008,08,14,08,32,21.70
2008,08,14,08,33,21.70
2008,08,14,08,34,21.80
2008,08,14,08,35,21.80
2008,08,14,08,36,21.80
2008,08,14,08,37,21.80
2008,08,14,08,38,21.80
2008,08,14,08,39,21.80
2008,08,14,08,40,21.90
2008,08,14,08,41,22.00
2008,08,14,08,42,22.10
2008,08,14,08,43,22.20
2008,08,14,08,44,22.20
2008,08,14,08,45,22.30
2008,08,14,08,46,22.30
2008,08,14,08,47,22.20
2008,08,14,08,48,22.20
2008,08,14,08,49,22.20
2008,08,14,08,50,22.10
2008,08,14,08,51,22.10
2008,08,14,08,52,22.00
2008,08,14,08,53,22.00
2008,08,14,08,54,21.90
2008,08,14,08,55,21.90
2008,08,14,08,56,21.80
2008,08,14,08,57,21.80
2008,08,14,08,58,21.70
2008,08,14,08,59,21.70
2008,08,14,09,00,21.70
2008,08,14,09,01,21.80
2008,08,14,09,02,21.80
2008,08,14,09,03,21.80
2008,08,14,09,04,21.80
2008,08,14,09,05,21.80
2008,08,14,09,06,21.90
2008,08,14,09,07,22.00
2008,08,14,09,08,22.00
2008,08,14,09,09,22.10
2008,08,14,09,10,22.20
2008,08,14,09,11,22.30
2008,08,14,09,12,22.40
2008,08,14,09,13,22.50
2008,08,14,09,14,22.60
2008,08,14,09,15,22.60
2008,08,14,09,16,22.70
2008,08,14,09,17,22.80
2008,08,14,09,18,22.80
2008,08,14,09,19,22.80
2008,08,14,09,20,22.90
2008,08,14,09,21,22.90
2008,08,14,09,22,22.90
2008,08,14,09,23,22.90
2008,08,14,09,24,22.80
2008,08,14,09,25,22.80
2008,08,14,09,26,22.70
2008,08,14,09,27,22.70
2008,08,14,09,28,22.70
2008,08,14,09,29,22.70
2008,08,14,09,30,22.70
2008,08,14,09,31,22.70
2008,08,14,09,32,22.70
2008,08,14,09,33,22.60
2008,08,14,09,34,22.50
2008,08,14,09,35,22.40
2008,08,14,09,36,22.40
2008,08,14,09,37,22.40
2008,08,14,09,38,22.30
2008,08,14,09,39,22.20
2008,08,14,09,40,22.20
2008,08,14,09,41,22.20
2008,08,14,09,42,22.20
2008,08,14,09,43,22.20
2008,08,14,09,44,22.30
2008,08,14,09,45,22.30
2008,08,14,09,46,22.30
2008,08,14,09,47,22.40
2008,08,14,09,48,22.40
2008,08,14,09,49,22.40
2008,08,14,09,50,22.50
2008,08,14,09,51,22.50
2008,08,14,09,52,22.60
2008,08,14,09,53,22.70
2008,08,14,09,54,22.70
2008,08,14,09,55,22.80
2008,08,14,09,56,22.80
2008,08,14,09,57,22.80
2008,08,14,09,58,22.80
2008,08,14,09,59,22.80
2008,08,14,10,00,22.80
2008,08,14,10,01,22.80
2008,08,14,10,02,22.80
2008,08,14,10,03,22.80
2008,08,14,10,04,22.80
2008,08,14,10,05,22.90
2008,08,14,10,06,23.00
2008,08,14,10,07,23.10
2008,08,14,10,08,23.00
2008,08,14,10,09,23.00
2008,08,14,10,10,22.90
2008,08,14,10,11,22.90
2008,08,14,10,12,23.00
2008,08,14,10,13,22.90
2008,08,14,10,14,22.90
2008,08,14,10,15,22.90
2008,08,14,10,16,22.90
2008,08,14,10,17,22.90
2008,08,14,10,18,22.90
2008,08,14,10,19,22.90
2008,08,14,10,20,23.00
2008,08,14,10,21,23.00
2008,08,14,10,22,23.00
2008,08,14,10,23,23.00
2008,08,14,10,24,22.90
2008,08,14,10,25,22.90
2008,08,14,10,26,22.90
2008,08,14,10,27,22.90
2008,08,14,10,28,23.00
2008,08,14,10,29,23.00
2008,08,14,10,30,23.10
2008,08,14,10,31,23.10
2008,08,14,10,32,23.10
2008,08,14,10,33,23.10
2008,08,14,10,34,23.10
2008,08,14,10,35,23.10
2008,08,14,10,36,23.00
2008,08,14,10,37,23.00
2008,08,14,10,38,23.00
2008,08,14,10,39,23.10
2008,08,14,10,40,23.20
2008,08,14,10,41,23.20
2008,08,14,10,42,23.20
2008,08,14,10,43,23.20
2008,08,14,10,44,23.30
2008,08,14,10,45,23.30
2008,08,14,10,46,23.40
2008,08,14,10,47,23.50
2008,08,14,10,48,23.60
2008,08,14,10,49,23.70
2008,08,14,10,50,23.70
2008,08,14,10,51,23.80
2008,08,14,10,52,23.80
2008,08,14,10,53,23.80
2008,08,14,10,54,23.70
2008,08,14,10,55,23.70
2008,08,14,10,56,23.70
2008,08,14,10,57,23.80
2008,08,14,10,58,23.90
2008,08,14,10,59,24.00
2008,08,14,11,00,24.00
2008,08,14,11,01,24.10
2008,08,14,11,02,24.10
2008,08,14,11,03,24.10
2008,08,14,11,04,24.10
2008,08,14,11,05,24.10
2008,08,14,11,06,24.10
2008,08,14,11,07,24.10
2008,08,14,11,08,24.10
2008,08,14,11,09,24.20
2008,08,14,11,10,24.30
2008,08,14,11,11,24.30
2008,08,14,11,12,24.30
2008,08,14,11,13,24.40
2008,08,14,11,14,24.40
2008,08,14,11,15,24.50
2008,08,14,11,16,24.50
2008,08,14,11,17,24.40
2008,08,14,11,18,24.40
2008,08,14,11,19,24.40
2008,08,14,11,20,24.40
2008,08,14,11,21,24.40
2008,08,14,11,22,24.30
2008,08,14,11,23,24.40
2008,08,14,11,24,24.40
2008,08,14,11,25,24.40
2008,08,14,11,26,24.40
2008,08,14,11,27,24.40
2008,08,14,11,28,24.30
2008,08,14,11,29,24.20
2008,08,14,11,30,24.20
2008,08,14,11,31,24.10
2008,08,14,11,32,24.10
2008,08,14,11,33,24.20
2008,08,14,11,34,24.20
2008,08,14,11,35,24.20
2008,08,14,11,36,24.20
2008,08,14,11,37,24.30
2008,08,14,11,38,24.40
2008,08,14,11,39,24.40
2008,08,14,11,40,24.30
2008,08,14,11,41,24.40
2008,08,14,11,42,24.40
2008,08,14,11,43,24.50
2008,08,14,11,44,24.50
2008,08,14,11,45,24.60
2008,08,14,11,46,24.60
2008,08,14,11,47,24.70
2008,08,14,11,48,24.60
2008,08,14,11,49,24.40
2008,08,14,11,50,24.30
2008,08,14,11,51,24.20
2008,08,14,11,52,24.20
2008,08,14,11,53,24.20
2008,08,14,11,54,24.10
2008,08,14,11,55,24.10
2008,08,14,11,56,24.10
2008,08,14,11,57,24.00
2008,08,14,11,58,24.10
2008,08,14,11,59,24.10
2008,08,14,12,00,24.10
2008,08,14,12,01,24.20
2008,08,14,12,02,24.20
2008,08,14,12,03,24.20
2008,08,14,12,04,24.30
2008,08,14,12,05,24.30
2008,08,14,12,06,24.30
2008,08,14,12,07,24.40
2008,08,14,12,08,24.50
2008,08,14,12,09,24.50
2008,08,14,12,10,24.50
2008,08,14,12,11,24.40
2008,08,14,12,12,24.40
2008,08,14,12,13,24.30
2008,08,14,12,14,24.40
2008,08,14,12,15,24.40
2008,08,14,12,16,24.40
2008,08,14,12,17,24.50
2008,08,14,12,18,24.50
2008,08,14,12,19,24.50
2008,08,14,12,20,24.50
2008,08,14,12,21,24.40
2008,08,14,12,22,24.40
2008,08,14,12,23,24.30
2008,08,14,12,24,24.40
2008,08,14,12,25,24.40
2008,08,14,12,26,24.50
2008,08,14,12,27,24.60
2008,08,14,12,28,24.60
2008,08,14,12,29,24.60
2008,08,14,12,30,24.70
2008,08,14,12,31,24.80
2008,08,14,12,32,24.80
2008,08,14,12,33,24.90
2008,08,14,12,34,24.90
2008,08,14,12,35,24.80
2008,08,14,12,36,24.70
2008,08,14,12,37,24.60
2008,08,14,12,38,24.60
2008,08,14,12,39,24.60
2008,08,14,12,40,24.50
2008,08,14,12,41,24.40
2008,08,14,12,42,24.40
2008,08,14,12,43,24.40
2008,08,14,12,44,24.50
2008,08,14,12,45,24.50
2008,08,14,12,46,24.60
2008,08,14,12,47,24.70
2008,08,14,12,48,24.80
2008,08,14,12,49,24.90
2008,08,14,12,50,24.90
2008,08,14,12,51,24.90
2008,08,14,12,52,24.90
2008,08,14,12,53,25.00
2008,08,14,12,54,25.10
2008,08,14,12,55,25.10
2008,08,14,12,56,25.20
2008,08,14,12,57,25.20
2008,08,14,12,58,25.20
2008,08,14,12,59,25.20
2008,08,14,13,00,25.10
2008,08,14,13,01,25.10
2008,08,14,13,02,25.10
2008,08,14,13,03,25.10
2008,08,14,13,04,25.10
2008,08,14,13,05,25.10
2008,08,14,13,06,25.10
2008,08,14,13,07,25.10
2008,08,14,13,08,25.20
2008,08,14,13,09,25.30
2008,08,14,13,10,25.30
2008,08,14,13,11,25.30
2008,08,14,13,12,25.40
2008,08,14,13,13,25.40
2008,08,14,13,14,25.50
2008,08,14,13,15,25.50
2008,08,14,13,16,25.50
2008,08,14,13,17,25.60
2008,08,14,13,18,25.70
2008,08,14,13,19,25.70
2008,08,14,13,20,25.60
2008,08,14,13,21,25.60
2008,08,14,13,22,25.60
2008,08,14,13,23,25.60
2008,08,14,13,24,25.60
2008,08,14,13,25,25.70
2008,08,14,13,26,25.70
2008,08,14,13,27,25.70
2008,08,14,13,28,25.70
2008,08,14,13,29,25.80
2008,08,14,13,30,25.80
2008,08,14,13,31,25.80
2008,08,14,13,32,25.90
2008,08,14,13,33,25.90
2008,08,14,13,34,25.90
2008,08,14,13,35,26.00
2008,08,14,13,36,26.10
2008,08,14,13,37,26.10
2008,08,14,13,38,26.00
2008,08,14,13,39,25.90
2008,08,14,13,40,25.90
2008,08,14,13,41,25.90
2008,08,14,13,42,25.80
2008,08,14,13,43,25.90
2008,08,14,13,44,25.80
2008,08,14,13,45,25.80
2008,08,14,13,46,25.80
2008,08,14,13,47,25.90
2008,08,14,13,48,25.90
2008,08,14,13,49,26.00
2008,08,14,13,50,26.10
2008,08,14,13,51,26.20
2008,08,14,13,52,26.20
2008,08,14,13,53,26.20
2008,08,14,13,54,26.30
2008,08,14,13,55,26.30
2008,08,14,13,56,26.40
2008,08,14,13,57,26.30
2008,08,14,13,58,26.30
2008,08,14,13,59,26.30
2008,08,14,14,00,26.30
2008,08,14,14,01,26.30
2008,08,14,14,02,26.20
2008,08,14,14,03,26.20
2008,08,14,14,04,26.20
2008,08,14,14,05,26.20
2008,08,14,14,06,26.10
2008,08,14,14,07,26.10
2008,08,14,14,08,26.00
2008,08,14,14,09,26.00
2008,08,14,14,10,26.10
2008,08,14,14,11,26.20
2008,08,14,14,12,26.30
2008,08,14,14,13,26.30
2008,08,14,14,14,26.30
2008,08,14,14,15,26.30
2008,08,14,14,16,26.20
2008,08,14,14,17,26.20
2008,08,14,14,18,26.30
2008,08,14,14,19,26.30
2008,08,14,14,20,26.30
2008,08,14,14,21,26.30
2008,08,14,14,22,26.30
2008,08,14,14,23,26.40
2008,08,14,14,24,26.40
2008,08,14,14,25,26.40
2008,08,14,14,26,26.40
2008,08,14,14,27,26.40
2008,08,14,14,28,26.40
2008,08,14,14,29,26.30
2008,08,14,14,30,26.30
2008,08,14,14,31,26.40
2008,08,14,14,32,26.40
2008,08,14,14,33,26.40
2008,08,14,14,34,26.50
2008,08,14,14,35,26.40
2008,08,14,14,36,26.30
2008,08,14,14,37,26.30
2008,08,14,14,38,26.20
2008,08,14,14,39,26.20
2008,08,14,14,40,26.30
2008,08,14,14,41,26.40
2008,08,14,14,42,26.60
2008,08,14,14,43,26.70
2008,08,14,14,44,26.70
2008,08,14,14,45,26.70
2008,08,14,14,46,26.80
2008,08,14,14,47,26.80
2008,08,14,14,48,26.90
2008,08,14,14,49,27.00
2008,08,14,14,50,27.10
2008,08,14,14,51,27.20
2008,08,14,14,52,27.30
2008,08,14,14,53,27.40
2008,08,14,14,54,27.40
2008,08,14,14,55,27.40
2008,08,14,14,56,27.40
2008,08,14,14,57,27.50
2008,08,14,14,58,27.60
2008,08,14,14,59,27.60
2008,08,14,15,00,27.70
2008,08,14,15,01,27.70
2008,08,14,15,02,27.80
2008,08,14,15,03,27.80
2008,08,14,15,04,27.80
2008,08,14,15,05,27.80
2008,08,14,15,06,27.80
2008,08,14,15,07,27.80
2008,08,14,15,08,27.70
2008,08,14,15,09,27.60
2008,08,14,15,10,27.50
2008,08,14,15,11,27.40
2008,08,14,15,12,27.40
2008,08,14,15,13,27.40
2008,08,14,15,14,27.40
2008,08,14,15,15,27.40
2008,08,14,15,16,27.40
2008,08,14,15,17,27.40
2008,08,14,15,18,27.40
2008,08,14,15,19,27.40
2008,08,14,15,20,27.40
2008,08,14,15,21,27.30
2008,08,14,15,22,27.30
2008,08,14,15,23,27.30
2008,08,14,15,24,27.30
2008,08,14,15,25,27.40
2008,08,14,15,26,27.30
2008,08,14,15,27,27.40
2008,08,14,15,28,27.40
2008,08,14,15,29,27.40
2008,08,14,15,30,27.40
2008,08,14,15,31,27.50
2008,08,14,15,32,27.60
2008,08,14,15,33,27.70
2008,08,14,15,34,27.70
2008,08,14,15,35,27.70
2008,08,14,15,36,27.60
2008,08,14,15,37,27.60
2008,08,14,15,38,27.60
2008,08,14,15,39,27.60
2008,08,14,15,40,27.60
2008,08,14,15,41,27.70
2008,08,14,15,42,27.70
2008,08,14,15,43,27.80
2008,08,14,15,44,27.80
2008,08,14,15,45,27.80
2008,08,14,15,46,27.80
2008,08,14,15,47,27.70
2008,08,14,15,48,27.70
2008,08,14,15,49,27.60
2008,08,14,15,50,27.60
2008,08,14,15,51,27.50
2008,08,14,15,52,27.50
2008,08,14,15,53,27.50
2008,08,14,15,54,27.50
2008,08,14,15,55,27.50
2008,08,14,15,56,27.50
2008,08,14,15,57,27.50
2008,08,14,15,58,27.60
2008,08,14,15,59,27.70
2008,08,14,16,00,27.70
2008,08,14,16,01,27.80
2008,08,14,16,02,27.80
2008,08,14,16,03,27.80
2008,08,14,16,04,27.80
2008,08,14,16,05,27.80
2008,08,14,16,06,27.80
2008,08,14,16,07,27.90
2008,08,14,16,08,27.90
2008,08,14,16,09,28.00
2008,08,14,16,10,28.10
2008,08,14,16,11,28.10
2008,08,14,16,12,28.20
2008,08,14,16,13,28.20
2008,08,14,16,14,28.30
2008,08,14,16,15,28.40
2008,08,14,16,16,28.50
2008,08,14,16,17,28.60
2008,08,14,16,18,28.60
2008,08,14,16,19,28.60
2008,08,14,16,20,28.60
2008,08,14,16,21,28.60
2008,08,14,16,22,28.60
2008,08,14,16,23,28.60
2008,08,14,16,24,28.60
2008,08,14,16,25,28.70
2008,08,14,16,26,28.70
2008,08,14,16,27,28.60
2008,08,14,16,28,28.50
2008,08,14,16,29,28.40
2008,08,14,16,30,28.30
2008,08,14,16,31,28.30
2008,08,14,16,32,28.20
2008,08,14,16,33,28.20
2008,08,14,16,34,28.20
2008,08,14,16,35,28.20
2008,08,14,16,36,28.20
2008,08,14,16,37,28.20
2008,08,14,16,38,28.30
2008,08,14,16,39,28.40
2008,08,14,16,40,28.40
2008,08,14,16,41,28.40
2008,08,14,16,42,28.40
2008,08,14,16,43,28.30
2008,08,14,16,44,28.30
2008,08,14,16,45,28.30
2008,08,14,16,46,28.30
2008,08,14,16,47,28.30
2008,08,14,16,48,28.30
2008,08,14,16,49,28.30
2008,08,14,16,50,28.30
2008,08,14,16,51,28.30
2008,08,14,16,52,28.30
2008,08,14,16,53,28.30
2008,08,14,16,54,28.30
2008,08,14,16,55,28.30
2008,08,14,16,56,28.40
2008,08,14,16,57,28.40
2008,08,14,16,58,28.40
2008,08,14,16,59,28.50
2008,08,14,17,00,28.50
2008,08,14,17,01,28.40
2008,08,14,17,02,28.50
2008,08,14,17,03,28.50
2008,08,14,17,04,28.50
2008,08,14,17,05,28.60
2008,08,14,17,06,28.60
2008,08,14,17,07,28.60
2008,08,14,17,08,28.50
2008,08,14,17,09,28.50
2008,08,14,17,10,28.40
2008,08,14,17,11,28.40
2008,08,14,17,12,28.40
2008,08,14,17,13,28.30
2008,08,14,17,14,28.30
2008,08,14,17,15,28.30
2008,08,14,17,16,28.30
2008,08,14,17,17,28.30
2008,08,14,17,18,28.30
2008,08,14,17,19,28.30